Terminal Aerodrome Forecast
Issued by NWS Atlanta, GA

Home | Current Version | Previous Version | Text Only | Print | Product List | Glossary On
Versions: 1 2 3 4 5 6 7 8 9 10 11 12 13 14 15 16 17 18 19 20 21 22 23 24 25 26 27 28 29 30 31 32 33 34 35 36 37 38 39 40 41
000
FTUS42 KFFC 190500 RRA
TAFATL
TAF
KATL 190543Z 1906/2012 VRB03KT P6SM BKN200
     FM191100 07005KT 6SM BR BKN008
     FM191400 08007KT P6SM BKN015
     FM191600 09009KT P6SM SCT035
     FM191800 10009KT P6SM SCT050
     FM201000 08008KT P6SM BKN015=

USA.gov is the U.S. government's official web portal to all federal, state and local government web resources and services.